Regional Weather Roundup
Issued by NWS

Home | Current Version | Previous Version | Graphics & Text | Print | Product List | Glossary On
Versions: 1 2 3 4 5 6 7 8 9 10 11 12 13 14 15 16 17 18 19 20 21 22 23 24 25 26 27 28 29 30 31 32 33 34 35 36 37 38 39 40 41 42 43 44 45 46 47 48 49 50
000
ASUS43 KLOT 050610
RWRIL

ILLINOIS REGIONAL WEATHER ROUNDUP
NATIONAL WEATHER SERVICE CHICAGO/ROMEOVILLE IL
1200 AM CST THU MAR 05 2015

NOTE: "FAIR" INDICATES FEW OR NO CLOUDS BELOW 12,000 FEET WITH NO
SIGNIFICANT WEATHER AND/OR OBSTRUCTIONS TO VISIBILITY.

* THESE STATIONS ARE NOT UNDER NWS QUALITY CONTROL. THEY ALSO MAY NOT
  REPORT WEATHER SUCH AS PRECIPITATION OR FOG.

ILZ001-002-007-009-015-016-024-050700-
NORTHWEST ILLINOIS

CITY           SKY/WX    TMP DP  RH WIND       PRES   REMARKS
MOLINE         MOCLDY    12   0  58 NW8       30.43R WCI   0
6HR MIN TEMP:  12; 6HR MAX TEMP:  17;

STERLING*      PTCLDY     7   0  72 NW6       30.40S WCI  -3
SAVANNA*       PTCLDY     7  -2  65 NW5       30.41S WCI  -1
$$

ILZ003-004-008-010-011-017-018-050700-
NORTH CENTRAL ILLINOIS

CITY           SKY/WX    TMP DP  RH WIND       PRES   REMARKS
ROCKFORD       MOCLDY     6  -5  60 NW9       30.39R WCI  -8
6HR MIN TEMP:   6; 6HR MAX TEMP:  14;

FREEPORT*      CLEAR      5  -5  64 NW7       30.39S WCI  -7
ROCHELLE*      CLEAR      6  -3  66 NW5       30.38S WCI  -2
DE KALB*       CLEAR      2  -5  70 NW8       30.36F WCI -11
PERU*          CLEAR      9   1  68 NW12      30.40R WCI  -6
$$

ILZ005-006-012>014-019>023-050700-
NORTHEAST ILLINOIS

CITY           SKY/WX    TMP DP  RH WIND       PRES   REMARKS
CHICAGO-OHARE  MOCLDY    10  -2  58 NW12      30.34S WCI  -5
6HR MIN TEMP:  10; 6HR MAX TEMP:  17;

CHICAGO-MIDWAY PTCLDY    14  -1  51 NW12      30.35S WCI   0
6HR MIN TEMP:  14; 6HR MAX TEMP:  20;

AURORA         CLEAR      7  -3  64 NW14      30.36S WCI -10
6HR MIN TEMP:   7; 6HR MAX TEMP:  15;

LANSING*       PTCLDY    14   0  54 NW7       30.34F WCI   3
JOLIET*        PTCLDY    10  -1  59 N6        30.36F WCI   1
WAUKEGAN       CLEAR      5  -5  63 W5        30.34S WCI  -4
6HR MIN TEMP:   4; 6HR MAX TEMP:  16;

DUPAGE AIRPORT CLEAR      9  -3  58 NW12      30.34S WCI  -6
6HR MIN TEMP:   9; 6HR MAX TEMP:  16;

KANKAKEE*      CLOUDY    14   1  58 NW13      30.35F WCI  -1
WHEELING       CLEAR     11  -3  53 NW8       30.36F WCI  -1
6HR MIN TEMP:  11; 6HR MAX TEMP:  18;

MORRIS*        CLEAR      9   1  69 NW9       30.36S WCI  -4
ROMEOVILLE*    PTCLDY    10  -1  59 NW8       30.35F WCI  -2
NORTHERLY ISL    N/A     16   1  51 N10         N/A  WCI   4
$$

LMZ740>746-050700-
SOUTHERN LAKE MICHIGAN

STATION/POSITION SKY/WX   TEMP    WIND        PRES    VSBY  WAVE
                          AIR SEA DIR/SP/G                  HT/PER
                          (F)     (DEG/KT/KT) (MB)    (MI)  (FT/S)
WAUKEGAN HARBOR            11                   N/A
HARRISON CRIB              15     310/ 17/ 20   N/A
BURNHAM HARBOR             16     330/  9/ 14   N/A
CALUMET HARBOR             14     300/  7/ 13 1026.0F
MICHIGAN CITY              16     280/ 12/ 14   N/A
$$

ILZ025>027-034>036-040-047-049-050-058-095>099-050700-
WEST-CENTRAL ILLINOIS

CITY           SKY/WX    TMP DP  RH WIND       PRES   REMARKS
QUINCY         PTCLDY    14   6  70 NW5       30.38F WCI   6
GALESBURG*     CLOUDY    12   4  71 NW7       30.41R WCI   2
MACOMB*        CLOUDY    14   7  73 N12       30.44R WCI   0
JACKSONVILLE*  PTCLDY    16   6  64 N6        30.39F WCI   7
PITTSFIELD*    PTCLDY    16   9  71 NW5       30.39F WCI   9
$$

ILZ028>032-037-038-041>044-048-051>054-059>061-050700-
CENTRAL ILLINOIS

CITY           SKY/WX    TMP DP  RH WIND       PRES   REMARKS
PONTIAC        PTCLDY    11   4  71 NW9       30.37F WCI  -1
BLOOMINGTON    MOCLDY    14   3  61 NW16      30.37R WCI  -2
DECATUR        PTCLDY    17   5  59 NW10      30.37R WCI   5
PEORIA         PTCLDY    14   0  53 N9        30.41R WCI   2
6HR MIN TEMP:  14; 6HR MAX TEMP:  19;

LACON*         CLEAR     10   0  65 NW6       30.41R WCI   0
LINCOLN*       PTCLDY    18   4  55 N7        30.42R WCI   8
SPRINGFIELD    PTCLDY    18   4  54 N7        30.40R WCI   9
6HR MIN TEMP:  17; 6HR MAX TEMP:  21;

TAYLORVILLE    PTCLDY    18   7  62 N10       30.38R WCI   6
$$

ILZ033-039-045-046-055>057-062-063-050700-
EAST-CENTRAL ILLINOIS

CITY           SKY/WX    TMP DP  RH WIND       PRES   REMARKS
CHAMPAIGN      CLOUDY    15   5  64 N13       30.35S WCI   1
DANVILLE*      MOCLDY    15   7  72 N12       30.30F WCI   1
RANTOUL*       CLOUDY    17   7  67 NW13      30.35R WCI   3
MATTOON        CLOUDY    17   8  67 N13       30.33F WCI   4
PARIS*         MOCLDY    17   9  69 N7        30.35S WCI   8
$$

ILZ079-100>102-050700-
SOUTHWEST ILLINOIS

CITY           SKY/WX    TMP DP  RH WIND       PRES   REMARKS
ALTON          MOCLDY    21   3  46 NW3       30.39S
BELLEVILLE     CLOUDY    21   7  53 N9        30.37F WCI  11
CAHOKIA*       CLOUDY    23   7  50 N8        30.38F WCI  14
SPARTA*        CLOUDY    21   8  57 N9        30.37R WCI  10
$$

ILZ064>066-069>071-074>076-080>082-084>086-088>090-092>094-050700-
SOUTH-CENTRAL ILLINOIS

CITY           SKY/WX    TMP DP  RH WIND       PRES   REMARKS
CARBONDALE     CLOUDY    21   6  52 N10       30.36R WCI  10
6HR MIN TEMP:  18; 6HR MAX TEMP:  21; 6HR PCP:  0.01;

CAIRO*         CLOUDY    21  19  91 N10       30.33S WCI  10
EFFINGHAM*     CLOUDY    19   4  51 NW10      30.36R WCI   7
MARION         CLOUDY    21  10  63 CALM      30.35S
MT. VERNON     CLOUDY    19   3  49 N9        30.35R WCI   9
CENTRALIA*     CLOUDY    20   6  54 N12       30.36R WCI   8
SALEM*         CLOUDY    22   8  54 N13       30.35F WCI   9
METROPOLIS*    CLOUDY    19  19 100 N9        30.31F WCI   8
$$

ILZ067-068-072-073-078-083-087-091-050700-
SOUTHEAST ILLINOIS

CITY           SKY/WX    TMP DP  RH WIND       PRES   REMARKS
LAWRENCEVILLE  CLOUDY    20   7  57 N16G23    30.33S WCI   6
FLORA*         CLOUDY    20   7  56 N10       30.34S WCI   8
FAIRFIELD*     CLOUDY    20   7  56 N10       30.33S WCI   9
HARRISBURG*    CLOUDY    21   7  55 N9        30.34S WCI  11
ROBINSON*      CLOUDY    19   7  58 N14       30.36R WCI   6
CARMI*         CLOUDY    22  11  62 CALM      30.32S
$$

ABBREVIATIONS USED IN REMARKS
   TC - TEMPERATURE IN CELSIUS
  WCI - WIND CHILL INDEX
   HX - HEAT INDEX
  VSB - VISIBILITY
$$



USA.gov is the U.S. government's official web portal to all federal, state and local government web resources and services.